Simultaneous Nadir Overpasses (SNOs) Predictions

Prediction of SNOs between GOES-17 and TERRA Satellite Orbit:

Table of predicted SNOs for the next 14.0 days since TLE Epoch: 8/17/2019
Index Date Time (GOES-17) GOES-17 Lat,Lon TERRA Lat,Lon Distance(km) Time Diff (sec)
1 08/18/2019 07:22:01 -0.02,-137.18 0.78,-133.39 430.56 80
2 08/18/2019 19:45:57 0.02,-137.18 0.29,-138.56 155.50 80
3 08/20/2019 19:31:05 0.02,-137.17 -0.33,-135.60 179.04 80
4 08/21/2019 07:55:08 -0.03,-137.16 -0.83,-140.77 412.25 80
5 08/23/2019 07:42:56 -0.03,-137.13 -0.20,-137.82 78.74 80
6 08/25/2019 07:28:04 -0.03,-137.10 0.42,-134.86 253.97 80
7 08/25/2019 19:49:20 0.04,-137.09 0.64,-140.02 332.97 80
8 08/27/2019 19:39:47 0.04,-137.04 0.07,-137.05 3.22 80
9 08/29/2019 19:24:55 0.04,-136.99 -0.56,-134.09 329.48 80
10 08/30/2019 07:48:59 -0.05,-136.98 -0.54,-139.29 262.46 80




NCC Satellite Simultaneous Nadir Overpasses (SNOs) Prediction Service
